Regional Weather Roundup
Issued by NWS

Home | Current Version | Previous Version | Text Only | Print | Product List | Glossary Off
Versions: 1 2 3 4 5 6 7 8 9 10 11 12 13 14 15 16 17 18 19 20 21 22 23 24 25 26 27 28 29 30 31 32 33 34 35 36 37 38 39 40 41 42 43 44 45 46 47 48 49 50

000
ASUS45 KCYS 061910
RWRWY

WYOMING REGIONAL WEATHER ROUNDUP
NATIONAL WEATHER SERVICE CHEYENNE WY
100 PM MDT WED MAY 06 2015

NOTE:  "FAIR" INDICATES FEW OR NO CLOUDS BELOW 12,000 FEET
WITH NO SIGNIFICANT WEATHER AND/OR OBSTRUCTIONS TO VISIBILITY.

WYZ001-062000-
YELLOWSTONE NATIONAL PARK

CITY           SKY/WX    TMP DP  RH WIND       PRES   REMARKS
LK YELLOWSTONE   N/A     48  34  58 CALM      29.87F
W YELLOWSTONE  NOT AVBL

$$
WYZ002>013-054>058-071-098>099-062000-
NORTHERN WYOMING

CITY           SKY/WX    TMP DP  RH WIND       PRES   REMARKS
JACKSON        PTSUNNY   57  30  35 CALM      29.79F
CODY           CLOUDY    46  36  66 N21       29.87R
GREYBULL       LGT RAIN  49  39  68 NW29G36   29.76S
WORLAND        CLOUDY    51  42  71 NW24G32   29.76S
SHERIDAN       LGT RAIN  44  39  82 NW23G33   29.86R
BUFFALO        CLOUDY    48  37  65 N37G47    29.79S
GILLETTE       LGT RAIN  49  46  90 NW23G33   29.74R FOG
HULETT         LGT RAIN  55  54  94 W6        29.71S
NEWCASTLE      MOCLDY    55  50  82 W5        29.69F

$$
WYZ014>020-022>026-101>103-062000-
CENTRAL WYOMING

CITY           SKY/WX    TMP DP  RH WIND       PRES   REMARKS
BIG PINEY      FAIR      62  28  27 N17G26    29.79F
PINEDALE       MOCLDY    59  30  33 NW14G20   29.79F
DUBOIS         CLOUDY    52  37  58 SE13G25   29.78F
LANDER         LGT RAIN  50  47  89 W5        29.79F
RIVERTON       LGT RAIN  52  47  83 N10       29.80F
CASPER         CLOUDY    54  43  66 N20       29.75F
DOUGLAS        CLOUDY    53  47  79 N16       29.72F

$$
WYZ021-027>030-104>119-062000-
SOUTHERN WYOMING

CITY           SKY/WX    TMP DP  RH WIND       PRES   REMARKS
EVANSTON       FAIR      57  32  38 VRB5      29.82F
KEMMERER       FAIR      59  28  31 NW7G20    29.82F
FORT BRIDGER   CLEAR     59  30  33 W7        29.84F
ROCK SPRINGS   FAIR      59  34  39 W18G25    29.78F
DIXON          RAIN      51  46  85 W5        29.81F
RAWLINS        RAIN      48  45  89 NW14      29.78F FOG
SARATOGA       HVY RAIN  50  43  76 SW9       29.77F
LARAMIE        FAIR      53  41  63 N17       29.74F
CHEYENNE       CLOUDY    54  44  69 N14G21    29.71S
TORRINGTON     CLOUDY    59  51  75 NW7       29.64F
PINE BLUFFS    CLOUDY    57  48  72 N17       29.68S

$$


USA.gov is the U.S. government's official web portal to all federal, state and local government web resources and services.